Timestamp,Net Demand,Generation,Import,Solar,Wind,STOR,Other
2024-05-03T18:45:00,116.01,8.57,107.44,0.56,0.00,0.00,8.01
2024-05-03T18:50:00,115.48,8.6,106.88,0.51,0.00,0.00,8.09
2024-05-03T18:55:00,114.77,8.56,106.21,0.56,0.00,0.00,8.00
2024-05-03T19:00:00,114.65,8.54,106.11,0.63,0.00,0.00,7.91
2024-05-03T19:05:00,115.18,8.92,106.26,0.51,0.00,0.00,8.41
2024-05-03T19:10:00,115.97,9.68,106.29,0.52,0.00,0.00,9.16
2024-05-03T19:15:00,114.9,9.48,105.42,0.52,0.00,0.00,8.96
2024-05-03T19:20:00,114.5,9.79,104.71,0.52,0.00,0.00,9.27
2024-05-03T19:25:00,114.04,9.72,104.32,0.52,0.00,0.00,9.20
2024-05-03T19:30:00,113.04,9.58,103.46,0.52,0.00,0.00,9.06
2024-05-03T19:35:00,112.49,9.84,102.65,0.52,0.00,0.00,9.32
2024-05-03T19:40:00,112.21,9.68,102.53,0.52,0.00,0.00,9.16
2024-05-03T19:45:00,111.88,9.64,102.24,0.51,0.00,0.00,9.13
2024-05-03T19:50:00,106.84,9.43,97.41,0.52,0.00,0.00,8.91
2024-05-03T19:55:00,103.08,9.34,93.74,0.49,0.00,0.00,8.85
2024-05-03T20:00:00,103.3,9.49,93.81,0.40,0.00,0.00,9.09
2024-05-03T20:05:00,104.03,9.78,94.25,0.39,0.00,0.00,9.39
2024-05-03T20:10:00,102.88,9.98,92.90,0.39,0.00,0.00,9.59
2024-05-03T20:15:00,102.54,10.23,92.31,0.39,0.00,0.00,9.84
2024-05-03T20:20:00,101.37,10.16,91.21,0.39,0.00,0.00,9.77
2024-05-03T20:25:00,100.7,10.11,90.59,0.40,0.00,0.00,9.71
2024-05-03T20:30:00,101.23,10.12,91.11,0.39,0.00,0.00,9.73
2024-05-03T20:35:00,100.42,9.96,90.46,0.39,0.00,0.00,9.57
2024-05-03T20:40:00,99.52,9.98,89.54,0.39,0.00,0.00,9.59
2024-05-03T20:45:00,99.56,9.99,89.57,0.39,0.00,0.00,9.60
2024-05-03T20:50:00,98.95,9.89,89.06,0.38,0.00,0.00,9.51
2024-05-03T20:55:00,97.49,9.69,87.80,0.30,0.00,0.00,9.39
2024-05-03T21:00:00,98.63,9.82,88.81,0.26,0.00,0.00,9.56
2024-05-03T21:05:00,107.07,10.16,96.91,0.31,0.00,0.00,9.85
2024-05-03T21:10:00,109.23,10.17,99.06,0.40,0.00,0.00,9.77
2024-05-03T21:15:00,107.13,10,97.13,0.40,0.00,0.00,9.60
2024-05-03T21:20:00,105.47,10.07,95.40,0.39,0.00,0.00,9.68
2024-05-03T21:25:00,105.38,10.23,95.15,0.39,0.00,0.00,9.84
2024-05-03T21:30:00,104.58,9.97,94.61,0.41,0.00,0.00,9.56
2024-05-03T21:35:00,104.95,10.04,94.91,0.39,0.00,0.00,9.65
2024-05-03T21:40:00,104.61,10.46,94.15,0.43,0.00,0.00,10.03
2024-05-03T21:45:00,103.9,9.27,94.63,0.45,0.00,0.00,8.82
2024-05-03T21:50:00,103.26,8.36,94.90,0.40,0.00,0.00,7.96
2024-05-03T21:55:00,102.45,8.24,94.21,0.40,0.00,0.00,7.84
2024-05-03T22:00:00,102.43,8.58,93.85,0.40,0.00,0.00,8.18
2024-05-03T22:05:00,101.35,8.58,92.77,0.39,0.00,0.00,8.19
2024-05-03T22:10:00,100.18,7.87,92.31,0.39,0.00,0.00,7.48
2024-05-03T22:15:00,99.71,8.25,91.46,0.39,0.00,0.00,7.86
2024-05-03T22:20:00,98.44,8.49,89.95,0.39,0.00,0.00,8.10
2024-05-03T22:25:00,96.71,8.54,88.17,0.39,0.00,0.00,8.15
2024-05-03T22:30:00,95.8,8.49,87.31,0.39,0.00,0.00,8.10
2024-05-03T22:35:00,95.62,8.04,87.58,0.39,0.00,0.00,7.65
2024-05-03T22:40:00,95.92,8.35,87.57,0.40,0.00,0.00,7.95
2024-05-03T22:45:00,94.83,7.64,87.19,0.40,0.00,0.00,7.24
2024-05-03T22:50:00,93.82,8.07,85.75,0.39,0.00,0.00,7.68
2024-05-03T22:55:00,93.18,7.9,85.28,0.40,0.00,0.00,7.50
2024-05-03T23:00:00,93.04,8.32,84.72,0.40,0.00,0.00,7.92
2024-05-03T23:05:00,92.41,8.5,83.91,0.39,0.00,0.00,8.11
2024-05-03T23:10:00,92.23,8.48,83.75,0.40,0.00,0.00,8.08
2024-05-03T23:15:00,93.44,8.63,84.81,0.39,0.00,0.00,8.24
2024-05-03T23:20:00,95.21,8.66,86.55,0.39,0.00,0.00,8.27
2024-05-03T23:25:00,91.81,8.76,83.05,0.39,0.00,0.00,8.37
2024-05-03T23:30:00,90.46,8.64,81.82,0.39,0.00,0.00,8.25
2024-05-03T23:35:00,90.56,8.95,81.61,0.39,0.00,0.00,8.56
2024-05-03T23:40:00,90.11,9.18,80.93,0.40,0.00,0.00,8.78
2024-05-03T23:45:00,89.94,8.97,80.97,0.40,0.00,0.00,8.57
2024-05-03T23:50:00,89.71,8.97,80.74,0.39,0.00,0.00,8.58
2024-05-03T23:55:00,88.82,9.14,79.68,0.39,0.00,0.00,8.75
2024-05-04T00:00:00,88.2,8.95,79.25,0.39,0.00,0.00,8.56
2024-05-04T00:05:00,90.28,9.56,80.72,0.39,0.00,0.00,9.17
2024-05-04T00:10:00,91,9.83,81.17,0.39,0.00,0.00,9.44
2024-05-04T00:15:00,89.76,9.65,80.11,0.39,0.00,0.00,9.26
2024-05-04T00:20:00,89.97,9.61,80.36,0.39,0.00,0.00,9.22
2024-05-04T00:25:00,89.92,9.78,80.14,0.39,0.00,0.00,9.39
2024-05-04T00:30:00,89.67,9.86,79.81,0.39,0.00,0.00,9.47
2024-05-04T00:35:00,90.11,9.92,80.19,0.39,0.00,0.00,9.53
2024-05-04T00:40:00,90.83,9.97,80.86,0.39,0.00,0.00,9.58
